When you browse on this site, cookies collect data to enhance your experience and personalize the content and advertising you see.
Visit our Privacy Policy to learn more. By continuing to use the site, you agree to this use of cookies and data.
  • Em Portugal
  • Lista de países
  • Para 7 dias
  • Temperatura da água
  • Mapas de satélite
  • Mapa do tempo
  • Widgets de tempo
  • user-avatar
    Iniciar Sessão

    Previsão horária em Cieszkowy

    Hoje, 19 Junho, Quarta-feira

    Tempo Temperatura Precipitação Vento Pressão Humidade
    00:00 +18°C° 0 mm 3 m/s 739 mmHg 95%
    01:00 +18°C° 0 mm 3 m/s 738 mmHg 96%
    02:00 +18°C° 0 mm 3 m/s 738 mmHg 96%
    03:00 +18°C° 0 mm 2 m/s 738 mmHg 97%
    04:00 +17°C° 0 mm 2 m/s 738 mmHg 97%
    05:00 +18°C° 0 mm 2 m/s 738 mmHg 95%
    06:00 +19°C° 0 mm 2 m/s 738 mmHg 92%
    07:00 +20°C° 0 mm 2 m/s 738 mmHg 89%
    08:00 +23°C° 0 mm 1 m/s 738 mmHg 83%
    09:00 +24°C° 0 mm 1 m/s 737 mmHg 77%
    10:00 +26°C° 0 mm 1 m/s 737 mmHg 71%
    11:00 +27°C° 0 mm 1 m/s 737 mmHg 66%
    12:00 +28°C° 0 mm 1 m/s 737 mmHg 61%
    13:00 +29°C° 0 mm 1 m/s 737 mmHg 56%
    14:00 +29°C° 0 mm 1 m/s 736 mmHg 55%
    15:00 +29°C° 0 mm 1 m/s 736 mmHg 54%
    16:00 +29°C° 0 mm 1 m/s 735 mmHg 53%
    17:00 +28°C° 0.4 mm 1 m/s 735 mmHg 60%
    18:00 +27°C° 0.4 mm 1 m/s 735 mmHg 66%
    19:00 +25°C° 0.4 mm 1 m/s 735 mmHg 72%
    20:00 +24°C° 0.4 mm 1 m/s 735 mmHg 76%
    21:00 +23°C° 0.4 mm 1 m/s 735 mmHg 79%
    22:00 +22°C° 0.4 mm 1 m/s 735 mmHg 82%
    23:00 +21°C° 0 mm 1 m/s 735 mmHg 83%

    Amanhã, 20 Junho, Quinta-feira

    Tempo Temperatura Precipitação Vento Pressão Humidade
    00:00 +21°C° 0 mm 1 m/s 735 mmHg 84%
    01:00 +20°C° 0 mm 1 m/s 735 mmHg 85%
    02:00 +20°C° 0 mm 1 m/s 735 mmHg 85%
    03:00 +20°C° 0 mm 1 m/s 735 mmHg 85%
    04:00 +20°C° 0 mm 1 m/s 735 mmHg 85%
    05:00 +21°C° 0 mm 1 m/s 735 mmHg 82%
    06:00 +22°C° 0 mm 1 m/s 735 mmHg 79%
    07:00 +24°C° 0 mm 1 m/s 736 mmHg 75%
    08:00 +25°C° 0.2 mm 1 m/s 736 mmHg 71%
    09:00 +27°C° 0.2 mm 1 m/s 736 mmHg 66%
    10:00 +28°C° 0.2 mm 1 m/s 736 mmHg 61%
    11:00 +28°C° 0.4 mm 1 m/s 736 mmHg 60%
    12:00 +28°C° 0.4 mm 1 m/s 736 mmHg 59%
    13:00 +29°C° 0.4 mm 1 m/s 735 mmHg 58%
    14:00 +28°C° 0.2 mm 1 m/s 735 mmHg 62%
    15:00 +27°C° 0.2 mm 2 m/s 735 mmHg 66%
    16:00 +26°C° 0.2 mm 2 m/s 735 mmHg 70%
    17:00 +26°C° 0.1 mm 2 m/s 735 mmHg 72%
    18:00 +25°C° 0.1 mm 1 m/s 735 mmHg 74%
    19:00 +24°C° 0.1 mm 1 m/s 735 mmHg 77%
    20:00 +23°C° 0 mm 1 m/s 735 mmHg 79%
    21:00 +22°C° 0 mm 1 m/s 735 mmHg 81%
    22:00 +21°C° 0 mm 1 m/s 736 mmHg 83%
    23:00 +21°C° 0.1 mm 1 m/s 736 mmHg 84%

    Depois de amanhã, 21 Junho, Sexta-feira

    Tempo Temperatura Precipitação Vento Pressão Humidade
    00:00 +20°C° 0.1 mm 1 m/s 736 mmHg 86%
    01:00 +20°C° 0.1 mm 1 m/s 736 mmHg 87%
    02:00 +20°C° 0.1 mm 1 m/s 736 mmHg 88%
    03:00 +19°C° 0.1 mm 1 m/s 736 mmHg 89%
    04:00 +17°C° 0.1 mm 0 m/s 736 mmHg 90%
    05:00 +20°C° 0.1 mm 1 m/s 736 mmHg 87%
    06:00 +22°C° 0.1 mm 1 m/s 737 mmHg 84%
    07:00 +23°C° 0.1 mm 2 m/s 737 mmHg 81%
    08:00 +24°C° 1.2 mm 1 m/s 737 mmHg 77%
    09:00 +26°C° 1.2 mm 1 m/s 737 mmHg 73%
    10:00 +27°C° 1.2 mm 1 m/s 737 mmHg 70%
    11:00 +27°C° 0.6 mm 1 m/s 737 mmHg 66%
    12:00 +28°C° 0.6 mm 1 m/s 737 mmHg 62%
    13:00 +28°C° 0.6 mm 1 m/s 737 mmHg 58%
    14:00 +28°C° 0.3 mm 2 m/s 737 mmHg 61%
    15:00 +27°C° 0.3 mm 2 m/s 737 mmHg 64%
    16:00 +27°C° 0.3 mm 2 m/s 736 mmHg 67%
    17:00 +26°C° 0.3 mm 2 m/s 736 mmHg 73%
    18:00 +24°C° 0.3 mm 2 m/s 736 mmHg 79%
    19:00 +23°C° 0.3 mm 2 m/s 736 mmHg 85%
    20:00 +23°C° 0.1 mm 2 m/s 737 mmHg 86%
    21:00 +21°C° 0.1 mm 2 m/s 737 mmHg 87%
    22:00 +20°C° 0.1 mm 2 m/s 737 mmHg 88%
    23:00 +20°C° 0.5 mm 2 m/s 737 mmHg 90%

    22 Junho, Sábado

    Tempo Temperatura Precipitação Vento Pressão Humidade
    00:00 +19°C° 0.5 mm 2 m/s 737 mmHg 92%
    01:00 +19°C° 0.5 mm 2 m/s 737 mmHg 94%
    02:00 +18°C° 1.2 mm 2 m/s 737 mmHg 95%
    03:00 +18°C° 1.2 mm 2 m/s 737 mmHg 95%
    04:00 +18°C° 1.2 mm 2 m/s 737 mmHg 95%
    05:00 +19°C° 0.6 mm 2 m/s 738 mmHg 94%
    06:00 +19°C° 0.6 mm 2 m/s 738 mmHg 93%
    07:00 +20°C° 0.6 mm 2 m/s 738 mmHg 91%
    08:00 +21°C° 1.2 mm 2 m/s 738 mmHg 88%
    09:00 +23°C° 1.2 mm 2 m/s 738 mmHg 84%
    10:00 +24°C° 1.2 mm 2 m/s 739 mmHg 80%
    11:00 +24°C° 1.4 mm 2 m/s 738 mmHg 79%
    12:00 +25°C° 1.4 mm 2 m/s 738 mmHg 78%
    13:00 +25°C° 1.4 mm 2 m/s 738 mmHg 77%
    14:00 +24°C° 1.8 mm 2 m/s 738 mmHg 81%
    15:00 +22°C° 1.8 mm 3 m/s 738 mmHg 86%
    16:00 +21°C° 1.8 mm 3 m/s 737 mmHg 90%
    17:00 +20°C° 1.5 mm 2 m/s 737 mmHg 91%
    18:00 +20°C° 1.5 mm 2 m/s 737 mmHg 92%
    19:00 +20°C° 1.5 mm 1 m/s 737 mmHg 93%
    20:00 +20°C° 1 mm 1 m/s 737 mmHg 94%
    21:00 +20°C° 1 mm 1 m/s 737 mmHg 95%
    22:00 +20°C° 1 mm 1 m/s 737 mmHg 96%
    23:00 +19°C° 0.5 mm 1 m/s 737 mmHg 96%

    23 Junho, Domingo

    Tempo Temperatura Precipitação Vento Pressão Humidade
    00:00 +19°C° 0.5 mm 1 m/s 737 mmHg 97%
    01:00 +19°C° 0.5 mm 1 m/s 737 mmHg 97%
    02:00 +19°C° 0.1 mm 1 m/s 736 mmHg 97%
    03:00 +19°C° 0.1 mm 1 m/s 736 mmHg 97%
    04:00 +18°C° 0.1 mm 1 m/s 736 mmHg 97%
    05:00 +19°C° 0.1 mm 1 m/s 736 mmHg 95%
    06:00 +19°C° 0.1 mm 2 m/s 736 mmHg 92%
    07:00 +20°C° 0.1 mm 2 m/s 736 mmHg 90%
    08:00 +21°C° 0.3 mm 3 m/s 736 mmHg 87%
    09:00 +22°C° 0.3 mm 4 m/s 736 mmHg 85%
    10:00 +22°C° 0.3 mm 5 m/s 736 mmHg 82%
    11:00 +22°C° 0.5 mm 5 m/s 737 mmHg 82%
    12:00 +21°C° 0.5 mm 6 m/s 737 mmHg 82%
    13:00 +21°C° 0.5 mm 7 m/s 737 mmHg 82%
    14:00 +20°C° 0 mm 7 m/s 737 mmHg 83%
    15:00 +18°C° 0 mm 7 m/s 737 mmHg 83%
    16:00 +17°C° 0 mm 7 m/s 737 mmHg 84%
    17:00 +16°C° 0.1 mm 7 m/s 738 mmHg 86%
    18:00 +15°C° 0.1 mm 7 m/s 738 mmHg 88%
    19:00 +15°C° 0.1 mm 6 m/s 738 mmHg 90%
    20:00 +15°C° 0.1 mm 7 m/s 739 mmHg 91%
    21:00 +14°C° 0.1 mm 7 m/s 739 mmHg 92%
    22:00 +14°C° 0.1 mm 7 m/s 739 mmHg 92%
    23:00 +14°C° 0.2 mm 7 m/s 739 mmHg 93%

    24 Junho, Segunda-feira

    Tempo Temperatura Precipitação Vento Pressão Humidade
    00:00 +14°C° 0.2 mm 7 m/s 740 mmHg 93%
    01:00 +14°C° 0.2 mm 7 m/s 740 mmHg 93%
    02:00 +12°C° 0.9 mm 7 m/s 740 mmHg 94%
    03:00 +12°C° 0.9 mm 7 m/s 740 mmHg 94%
    04:00 +12°C° 0.9 mm 7 m/s 741 mmHg 95%
    05:00 +13°C° 0.2 mm 6 m/s 741 mmHg 94%
    06:00 +13°C° 0.2 mm 5 m/s 742 mmHg 94%
    07:00 +13°C° 0.2 mm 5 m/s 742 mmHg 93%
    08:00 +13°C° 0 mm 5 m/s 742 mmHg 91%
    09:00 +13°C° 0 mm 4 m/s 743 mmHg 90%
    10:00 +13°C° 0 mm 4 m/s 743 mmHg 89%
    11:00 +15°C° 0 mm 5 m/s 743 mmHg 80%
    12:00 +19°C° 0 mm 5 m/s 744 mmHg 71%
    13:00 +21°C° 0 mm 6 m/s 744 mmHg 62%
    14:00 +21°C° 0 mm 5 m/s 744 mmHg 62%
    15:00 +21°C° 0 mm 5 m/s 744 mmHg 61%
    16:00 +21°C° 0 mm 4 m/s 744 mmHg 61%
    17:00 +20°C° 0 mm 4 m/s 744 mmHg 67%
    18:00 +19°C° 0 mm 3 m/s 744 mmHg 72%
    19:00 +18°C° 0 mm 2 m/s 744 mmHg 78%
    20:00 +17°C° 0 mm 2 m/s 745 mmHg 81%
    21:00 +16°C° 0 mm 2 m/s 745 mmHg 84%
    22:00 +14°C° 0 mm 2 m/s 745 mmHg 87%
    23:00 +14°C° 0 mm 2 m/s 745 mmHg 88%
    Mostrar mais